EW0603 Weather Reports


Display with metric or nautical units.
time (UTC)temp
F
wind
direction
speed
MPH
gust
MPH
rain 1hr
in
rain 24hr
in
rain mn
in
humidity
%
barometer
mb
20260902004131 77 252 0.0 0.0 0.00 0.00 0.00 82 1011.6
20260902004028 77 252 0.0 0.0 0.00 0.00 0.00 82 1011.6
20260902003922 77 252 0.0 0.0 0.00 0.00 0.00 82 1011.6
20260902003817 77 252 0.0 0.0 0.00 0.00 0.00 82 1011.5
20260902003714 77 252 0.0 0.0 0.00 0.00 0.00 82 1011.5
20260902003347 77 252 0.0 0.0 0.00 0.00 0.00 82 1011.3
20260902003241 77 252 0.0 0.0 0.00 0.00 0.00 81 1011.3
20260902003137 78 252 0.0 0.0 0.00 0.00 0.00 81 1011.3
20260902002555 78 252 0.0 0.0 0.00 0.00 0.00 79 1011.2
20260902002449 78 252 0.0 0.0 0.00 0.00 0.00 79 1011.2
20260902002344 78 252 0.0 0.0 0.00 0.00 0.00 79 1011.2
20260902002238 78 252 0.0 0.0 0.00 0.00 0.00 79 1011.2
20260902002135 78 252 0.0 0.0 0.00 0.00 0.00 79 1011.3
20260902002031 78 252 0.0 0.0 0.00 0.00 0.00 79 1011.3
20260902001929 78 252 0.0 0.0 0.00 0.00 0.00 79 1011.3
20260902001823 78 252 0.0 0.0 0.00 0.00 0.00 79 1011.3
20260902001717 78 252 0.0 0.0 0.00 0.00 0.00 78 1011.3
20260902001352 79 252 0.0 0.0 0.00 0.00 0.00 78 1011.3
20260902001249 79 252 0.0 0.0 0.00 0.00 0.00 78 1011.3
20260902001146 79 252 0.0 0.0 0.00 0.00 0.00 78 1011.3
20260902000822 79 252 0.0 0.0 0.00 0.00 0.00 77 1011.3
20260902000459 79 252 0.0 0.0 0.00 0.00 0.00 77 1011.3
20260902000356 79 252 0.0 0.0 0.00 0.00 0.00 77 1011.3
20260902000251 79 252 0.0 0.0 0.00 0.00 0.00 77 1011.3
20260902000147 79 252 0.0 0.0 0.00 0.00 0.00 77 1011.3
20260902000042 79 252 0.0 0.0 0.00 0.00 0.00 77 1011.3
20260901235936 79 252 0.0 0.0 0.00 0.00 0.00 77 1011.3
20260901235830 79 252 0.0 0.0 0.00 0.00 0.00 76 1011.4
20260901235727 79 252 0.0 0.0 0.00 0.00 0.00 76 1011.3
20260901235625 79 252 0.0 0.0 0.00 0.00 0.00 76 1011.3
20260901235523 79 252 0.0 0.0 0.00 0.00 0.00 76 1011.3
20260901235421 79 252 0.0 0.0 0.00 0.00 0.00 76 1011.3
20260901235318 79 255 0.0 0.0 0.00 0.00 0.00 76 1011.3
20260901235211 79 255 0.0 0.0 0.00 0.00 0.00 76 1011.4
20260901235107 80 255 0.0 0.0 0.00 0.00 0.00 76 1011.4
20260901235001 80 255 0.0 0.0 0.00 0.00 0.00 76 1011.4
20260901234854 80 255 0.0 0.0 0.00 0.00 0.00 76 1011.4
20260901234750 80 254 0.0 0.0 0.00 0.00 0.00 75 1011.5
20260901234646 80 289 0.0 0.0 0.00 0.00 0.00 76 1011.5
20260901234542 80 289 1.0 0.0 0.00 0.00 0.00 75 1011.5
20260901234438 80 289 1.0 6.0 0.00 0.00 0.00 75 1011.5
20260901234335 80 289 1.0 6.0 0.00 0.00 0.00 75 1011.5
20260901234230 80 263 1.0 6.0 0.00 0.00 0.00 75 1011.5
20260901234127 80 256 1.0 6.0 0.00 0.00 0.00 75 1011.6
20260901233800 80 258 0.0 6.0 0.00 0.00 0.00 74 1011.6
20260901233656 80 271 0.0 6.0 0.00 0.00 0.00 74 1011.7
20260901233331 80 265 1.0 0.0 0.00 0.00 0.00 74 1011.7
20260901233223 81 268 1.0 0.0 0.00 0.00 0.00 74 1011.7
20260901233119 81 290 1.0 0.0 0.00 0.00 0.00 74 1011.7
20260901233012 81 265 1.0 7.0 0.00 0.00 0.00 74 1011.7
20260901232648 81 277 1.0 7.0 0.00 0.00 0.00 73 1011.7
20260901232543 81 275 1.0 8.0 0.00 0.00 0.00 73 1011.6
20260901232440 81 275 1.0 8.0 0.00 0.00 0.00 73 1011.7
20260901232115 81 261 2.0 8.0 0.00 0.00 0.00 73 1011.7
20260901232012 81 264 2.0 8.0 0.00 0.00 0.00 74 1011.8
20260901231904 81 294 2.0 8.0 0.00 0.00 0.00 73 1011.8
20260901231800 81 290 2.0 8.0 0.00 0.00 0.00 74 1011.8
20260901231657 81 294 2.0 8.0 0.00 0.00 0.00 74 1011.8
20260901231553 81 275 3.0 8.0 0.00 0.00 0.00 73 1011.8
20260901231447 81 254 2.0 8.0 0.00 0.00 0.00 74 1011.8
20260901230648 81 252 2.0 8.0 0.00 0.00 0.00 74 1011.8
20260901230541 81 262 1.0 7.0 0.00 0.00 0.00 74 1011.8
20260901225955 81 287 2.0 9.0 0.00 0.00 0.00 74 1011.7
20260901225852 81 267 2.0 9.0 0.00 0.00 0.00 74 1011.7
20260901225749 81 274 2.0 9.0 0.00 0.00 0.00 74 1011.8
20260901225643 81 279 2.0 9.0 0.00 0.00 0.00 74 1011.8
20260901225321 81 259 3.0 9.0 0.00 0.00 0.00 74 1011.7
20260901225217 81 290 3.0 9.0 0.00 0.00 0.00 74 1011.6
20260901225109 81 273 3.0 9.0 0.00 0.00 0.00 74 1011.6
20260901224743 81 252 3.0 9.0 0.00 0.00 0.00 74 1011.6
20260901224638 81 262 4.0 9.0 0.00 0.00 0.00 74 1011.6
20260901224536 81 298 4.0 9.0 0.00 0.00 0.00 74 1011.6
20260901224210 81 268 2.0 8.0 0.00 0.00 0.00 74 1011.6
20260901224107 81 263 2.0 8.0 0.00 0.00 0.00 74 1011.5
20260901223739 81 279 1.0 8.0 0.00 0.00 0.00 73 1011.6
20260901223635 82 263 1.0 8.0 0.00 0.00 0.00 74 1011.6
20260901223533 82 269 1.0 6.0 0.00 0.00 0.00 74 1011.5
20260901223426 82 255 1.0 6.0 0.00 0.00 0.00 74 1011.6
20260901223324 82 294 1.0 0.0 0.00 0.00 0.00 74 1011.5
20260901223218 82 267 1.0 0.0 0.00 0.00 0.00 74 1011.5
20260901222850 82 211 1.0 7.0 0.00 0.00 0.00 73 1011.5
20260901222528 82 257 1.0 6.0 0.00 0.00 0.00 74 1011.4
20260901222424 82 277 1.0 6.0 0.00 0.00 0.00 74 1011.5
20260901222317 82 246 1.0 0.0 0.00 0.00 0.00 74 1011.5
20260901222213 82 253 1.0 0.0 0.00 0.00 0.00 74 1011.5
20260901222108 82 271 1.0 0.0 0.00 0.00 0.00 75 1011.5
20260901222001 82 284 1.0 0.0 0.00 0.00 0.00 75 1011.6
20260901221854 82 283 1.0 6.0 0.00 0.00 0.00 75 1011.6
20260901221752 82 257 1.0 6.0 0.00 0.00 0.00 74 1011.6
20260901221644 82 266 1.0 6.0 0.00 0.00 0.00 75 1011.6
20260901221057 82 259 0.0 4.0 0.00 0.01 0.00 76 1011.6
20260901220952 82 276 0.0 3.0 0.00 0.01 0.00 76 1011.6
20260901220848 82 267 0.0 3.0 0.00 0.01 0.00 76 1011.6
20260901220523 82 261 0.0 4.0 0.00 0.01 0.00 76 1011.5
20260901220416 82 261 0.0 4.0 0.00 0.01 0.00 76 1011.5
20260901220312 82 273 0.0 4.0 0.00 0.01 0.00 76 1011.5
20260901215724 82 287 0.0 2.0 0.00 0.01 0.00 75 1011.4
20260901215620 82 255 0.0 0.0 0.00 0.01 0.00 76 1011.3
20260901215517 83 236 0.0 0.0 0.00 0.02 0.00 75 1011.3
20260901215413 83 232 0.0 5.0 0.00 0.02 0.00 75 1011.3
20260901215306 83 268 0.0 5.0 0.00 0.02 0.00 75 1011.2
20260901215203 83 281 0.0 5.0 0.00 0.02 0.00 75 1011.3
20260901215056 83 252 0.0 5.0 0.00 0.02 0.00 75 1011.2
20260901214731 83 262 0.0 0.0 0.00 0.03 0.00 76 1011.2
20260901214625 83 262 0.0 0.0 0.00 0.03 0.00 75 1011.2
20260901214524 83 263 0.0 0.0 0.00 0.03 0.00 75 1011.1
20260901214421 83 248 0.0 0.0 0.00 0.03 0.00 75 1011.1
20260901214316 83 248 0.0 0.0 0.00 0.03 0.00 75 1011.1
20260901214213 83 252 0.0 0.0 0.00 0.03 0.00 75 1011.1
20260901213850 84 281 0.0 0.0 0.00 0.03 0.00 74 1010.9
20260901213746 84 281 0.0 6.0 0.00 0.03 0.00 74 1011.0
20260901213423 84 259 0.0 6.0 0.00 0.04 0.00 73 1010.9
20260901213320 84 164 0.0 6.0 0.00 0.04 0.00 73 1011.0
20260901213217 84 328 0.0 2.0 0.00 0.04 0.00 74 1010.9
20260901212856 84 0 0.0 4.0 0.00 0.05 0.00 73 1011.1
20260901212749 85 252 0.0 3.0 0.00 0.06 0.00 74 1011.0
20260901212430 84 232 0.0 4.0 0.00 0.06 0.00 74 1010.9
20260901212327 84 294 0.0 5.0 0.00 0.06 0.00 74 1010.9
20260901211744 84 217 0.0 0.0 0.00 0.07 0.00 75 1010.9
20260901211641 84 237 0.0 0.0 0.00 0.07 0.00 75 1010.7
20260901211538 84 211 0.0 0.0 0.00 0.07 0.00 75 1010.8
20260901211434 84 225 0.0 0.0 0.00 0.07 0.00 75 1010.9
20260901211326 84 249 0.0 0.0 0.00 0.07 0.00 77 1010.9
20260901211224 84 249 0.0 0.0 0.00 0.07 0.00 76 1010.8
20260901211117 84 249 0.0 0.0 0.00 0.07 0.00 78 1010.8
20260901211011 84 279 0.0 0.0 0.00 0.07 0.00 78 1010.9
20260901210906 84 279 0.0 0.0 0.00 0.07 0.00 77 1010.9
20260901210542 83 280 0.0 0.0 0.00 0.07 0.00 77 1010.8
20260901210436 83 280 0.0 0.0 0.00 0.07 0.00 76 1010.8
20260901210108 84 279 0.0 0.0 0.00 0.07 0.00 76 1010.9
20260901210005 83 281 0.0 3.0 0.00 0.07 0.00 75 1010.9
20260901205859 84 281 0.0 3.0 0.00 0.07 0.00 75 1010.9
20260901205751 84 276 0.0 2.0 0.00 0.07 0.00 75 1011.0
20260901205428 84 188 0.0 0.0 0.00 0.07 0.00 75 1011.2
20260901205320 84 188 0.0 0.0 0.00 0.07 0.00 75 1011.2
20260901205215 84 223 0.0 0.0 0.00 0.08 0.00 74 1011.1
20260901205108 84 252 0.0 0.0 0.00 0.08 0.00 75 1011.1
20260901205003 84 252 0.0 0.0 0.00 0.08 0.00 74 1011.0
20260901204634 84 281 0.0 0.0 0.00 0.08 0.00 73 1011.0
20260901204531 84 281 0.0 0.0 0.00 0.09 0.00 73 1011.0
20260901204428 84 281 0.0 0.0 0.00 0.09 0.00 73 1011.0
20260901204105 84 281 1.0 4.0 0.00 0.09 0.00 73 1011.1
20260901204003 84 292 2.0 4.0 0.00 0.09 0.00 72 1011.2
20260901203637 85 263 2.0 8.0 0.00 0.09 0.00 72 1011.2
20260901203535 85 273 2.0 8.0 0.00 0.09 0.00 72 1011.2
20260901203428 85 248 2.0 8.0 0.00 0.09 0.00 71 1011.2
20260901203325 85 254 2.0 8.0 0.00 0.09 0.00 71 1011.2
20260901202958 85 215 2.0 8.0 0.00 0.09 0.00 71 1011.0
20260901202634 86 208 2.0 8.0 0.00 0.09 0.00 73 1011.2
20260901202529 86 281 2.0 8.0 0.00 0.09 0.00 73 1011.2
20260901202423 86 267 2.0 8.0 0.00 0.09 0.00 73 1011.1
20260901202315 86 224 2.0 8.0 0.00 0.09 0.00 73 1011.1
20260901202211 86 258 2.0 9.0 0.00 0.09 0.00 73 1011.2
20260901201848 86 259 3.0 9.0 0.00 0.09 0.00 72 1011.2
20260901201519 87 268 2.0 9.0 0.00 0.09 0.00 72 1011.1
20260901201415 87 248 2.0 9.0 0.00 0.09 0.00 72 1011.1
20260901201309 87 245 2.0 9.0 0.00 0.09 0.00 72 1011.1
20260901201204 87 193 2.0 10.0 0.00 0.09 0.00 72 1011.1
20260901201102 87 259 2.0 10.0 0.00 0.09 0.00 71 1011.1
20260901200958 87 279 2.0 10.0 0.00 0.09 0.00 71 1011.0
20260901200855 87 296 2.0 10.0 0.00 0.09 0.00 71 1011.0
20260901200752 87 282 2.0 10.0 0.00 0.09 0.00 71 1011.1
20260901200647 87 182 2.0 10.0 0.00 0.09 0.00 71 1011.1
20260901200103 88 261 3.0 12.0 0.00 0.09 0.00 70 1011.2
20260901200000 88 260 3.0 12.0 0.00 0.09 0.00 70 1011.1
20260901195857 88 242 3.0 12.0 0.00 0.09 0.00 70 1011.2
20260901195754 88 169 3.0 12.0 0.00 0.09 0.00 71 1011.2
20260901195429 88 262 3.0 12.0 0.00 0.09 0.00 70 1011.3
20260901195106 88 271 3.0 12.0 0.00 0.09 0.00 69 1011.2
20260901195000 88 260 4.0 12.0 0.00 0.09 0.00 72 1011.3
20260901194854 88 275 4.0 12.0 0.00 0.09 0.00 71 1011.2
20260901194752 88 257 4.0 12.0 0.00 0.09 0.00 70 1011.2
20260901194646 88 196 4.0 12.0 0.00 0.09 0.00 70 1011.2
20260901194323 88 296 4.0 12.0 0.00 0.09 0.00 72 1011.3
20260901194219 88 242 3.0 11.0 0.00 0.09 0.00 70 1011.3
20260901194113 88 243 3.0 11.0 0.00 0.09 0.00 72 1011.3
20260901194011 88 239 3.0 10.0 0.00 0.09 0.00 73 1011.3
20260901193908 88 252 2.0 9.0 0.00 0.09 0.00 74 1011.3
20260901193801 88 274 2.0 9.0 0.00 0.09 0.00 73 1011.3
20260901193656 88 250 2.0 9.0 0.00 0.09 0.00 74 1011.3
20260901193551 88 259 2.0 9.0 0.00 0.09 0.00 74 1011.3
20260901193446 88 267 2.0 9.0 0.00 0.09 0.00 73 1011.3
20260901193118 88 199 1.0 6.0 0.00 0.09 0.00 74 1011.4
20260901192753 88 284 0.0 3.0 0.00 0.09 0.00 76 1011.5
20260901192649 88 198 0.0 7.0 0.00 0.09 0.00 76 1011.5
20260901192544 88 192 0.0 7.0 0.00 0.09 0.00 75 1011.5
20260901192217 88 280 1.0 7.0 0.00 0.09 0.00 75 1011.5
20260901192115 88 233 1.0 7.0 0.00 0.09 0.00 75 1011.5
20260901192013 87 221 1.0 7.0 0.00 0.09 0.00 74 1011.5
20260901191908 88 238 1.0 7.0 0.00 0.09 0.00 75 1011.5
20260901191803 88 225 1.0 7.0 0.00 0.09 0.00 74 1011.5
20260901191659 88 265 2.0 0.0 0.00 0.09 0.00 74 1011.5
20260901191553 88 265 2.0 9.0 0.00 0.09 0.00 74 1011.5
20260901191450 88 264 2.0 9.0 0.00 0.09 0.00 74 1011.5
20260901191347 88 242 3.0 9.0 0.00 0.09 0.00 74 1011.5
20260901191241 88 229 3.0 9.0 0.00 0.09 0.00 73 1011.5
20260901191137 88 208 3.0 9.0 0.00 0.09 0.00 73 1011.6
20260901191032 88 238 3.0 9.0 0.00 0.09 0.00 73 1011.5
20260901190709 88 232 3.0 9.0 0.00 0.09 0.00 73 1011.5
20260901190605 88 247 3.0 9.0 0.00 0.09 0.00 73 1011.5
20260901190502 88 245 2.0 9.0 0.00 0.09 0.00 74 1011.5
20260901190357 88 186 2.0 8.0 0.00 0.09 0.00 74 1011.5
20260901190252 88 194 1.0 7.0 0.00 0.09 0.00 74 1011.5
20260901185925 88 269 1.0 7.0 0.00 0.09 0.00 74 1011.5
20260901185818 88 241 1.0 7.0 0.00 0.09 0.00 74 1011.5
20260901185453 88 215 0.0 3.0 0.00 0.09 0.00 75 1011.5
20260901185350 88 218 1.0 0.0 0.00 0.09 0.00 74 1011.5
20260901185243 88 220 1.0 6.0 0.00 0.09 0.00 74 1011.5
20260901185137 88 162 1.0 6.0 0.00 0.09 0.00 74 1011.5
20260901185031 88 270 0.0 6.0 0.00 0.09 0.00 75 1011.5
20260901184927 88 271 0.0 6.0 0.00 0.09 0.00 74 1011.5
20260901184820 88 261 0.0 6.0 0.00 0.09 0.00 74 1011.5
20260901184711 88 218 0.0 6.0 0.00 0.09 0.00 74 1011.5
20260901184603 88 233 0.0 6.0 0.00 0.09 0.00 74 1011.5
20260901184458 88 213 0.0 6.0 0.00 0.09 0.00 74 1011.5
20260901184352 88 238 0.0 6.0 0.00 0.09 0.00 74 1011.5
20260901184027 88 254 1.0 0.0 0.00 0.09 0.00 74 1011.5
20260901183925 88 259 1.0 9.0 0.00 0.09 0.00 74 1011.5
20260901183603 88 250 2.0 9.0 0.00 0.09 0.00 73 1011.6
20260901183237 88 246 2.0 9.0 0.00 0.09 0.00 74 1011.6
20260901183129 88 218 2.0 9.0 0.00 0.09 0.00 74 1011.6
20260901183026 88 225 2.0 9.0 0.00 0.09 0.00 74 1011.6
20260901182923 88 228 3.0 9.0 0.00 0.09 0.00 74 1011.6
20260901182821 88 229 3.0 9.0 0.00 0.09 0.00 72 1011.6
20260901182455 88 199 2.0 9.0 0.00 0.09 0.00 72 1011.6
20260901182133 88 252 2.0 7.0 0.00 0.09 0.00 73 1011.5
20260901182029 88 227 2.0 7.0 0.00 0.09 0.00 73 1011.5
20260901181925 88 190 1.0 6.0 0.00 0.09 0.00 74 1011.4
20260901181344 88 186 2.0 9.0 0.00 0.09 0.00 73 1011.3
20260901180805 88 254 1.0 9.0 0.00 0.09 0.00 73 1011.3
20260901180702 88 277 1.0 9.0 0.00 0.09 0.00 72 1011.3
20260901180556 88 241 1.0 9.0 0.00 0.09 0.00 72 1011.3
20260901180237 88 178 0.0 7.0 0.00 0.09 0.00 72 1011.3
20260901180130 87 188 0.0 7.0 0.00 0.09 0.00 73 1011.3
20260901180026 88 207 1.0 7.0 0.00 0.09 0.00 73 1011.3
20260901175921 87 179 1.0 7.0 0.00 0.09 0.00 73 1011.3
20260901175554 87 206 0.0 7.0 0.00 0.09 0.00 74 1011.4
20260901175448 87 172 0.0 7.0 0.00 0.09 0.00 74 1011.3
20260901175346 87 277 1.0 7.0 0.00 0.09 0.00 74 1011.3
20260901175238 87 229 1.0 7.0 0.00 0.09 0.00 74 1011.3
20260901175134 87 199 0.0 7.0 0.00 0.09 0.00 74 1011.3
20260901175030 87 259 0.0 3.0 0.00 0.09 0.00 74 1011.3
20260901174925 87 259 0.0 3.0 0.00 0.09 0.00 75 1011.3
20260901174818 87 276 0.0 0.0 0.00 0.09 0.00 74 1011.3
20260901174716 87 276 0.0 4.0 0.00 0.09 0.00 73 1011.3
20260901174608 87 291 0.0 4.0 0.00 0.09 0.00 73 1011.3
20260901174501 88 263 0.0 4.0 0.00 0.09 0.00 73 1011.3
20260901174357 87 239 0.0 4.0 0.00 0.09 0.00 75 1011.3
20260901174255 88 194 0.0 2.0 0.00 0.09 0.00 77 1011.3
20260901174151 87 191 0.0 2.0 0.00 0.09 0.00 76 1011.3
20260901173822 87 194 1.0 5.0 0.00 0.09 0.00 74 1011.3
20260901173456 87 161 0.0 4.0 0.00 0.09 0.00 74 1011.3
20260901173349 87 155 0.0 4.0 0.00 0.09 0.00 73 1011.2
20260901173245 87 125 0.0 3.0 0.00 0.09 0.00 75 1011.3
20260901173142 87 179 1.0 7.0 0.00 0.09 0.00 74 1011.3
20260901173039 87 183 1.0 6.0 0.00 0.09 0.00 73 1011.3
20260901172935 87 219 1.0 6.0 0.00 0.09 0.00 75 1011.3
20260901172831 87 237 1.0 6.0 0.00 0.09 0.00 75 1011.3
20260901172249 87 175 1.0 6.0 0.00 0.09 0.00 74 1011.2
20260901172144 87 180 1.0 6.0 0.00 0.09 0.00 75 1011.2
20260901172041 87 179 0.0 4.0 0.00 0.09 0.00 77 1011.2
20260901171936 87 196 0.0 4.0 0.00 0.09 0.00 77 1011.3
20260901171833 86 172 0.0 4.0 0.00 0.09 0.00 74 1011.2
20260901171729 86 175 0.0 4.0 0.00 0.09 0.00 75 1011.2
20260901171408 86 184 0.0 3.0 0.00 0.09 0.00 75 1011.3
20260901171302 86 184 1.0 3.0 0.00 0.09 0.00 75 1011.4
20260901171158 86 169 1.0 3.0 0.00 0.09 0.00 75 1011.4
20260901171052 86 167 1.0 3.0 0.00 0.09 0.00 76 1011.4
20260901170946 86 156 1.0 5.0 0.00 0.09 0.00 74 1011.4
20260901170843 86 158 0.0 5.0 0.00 0.09 0.00 74 1011.4
20260901170736 86 150 0.0 5.0 0.00 0.09 0.00 74 1011.4
20260901170633 86 188 0.0 5.0 0.00 0.09 0.00 75 1011.3
20260901170528 86 176 0.0 5.0 0.00 0.09 0.00 74 1011.4
20260901170203 86 177 0.0 0.0 0.00 0.09 0.00 75 1011.4
20260901170056 86 193 0.0 0.0 0.00 0.09 0.00 75 1011.4
20260901165949 86 194 0.0 0.0 0.00 0.09 0.00 75 1011.4
20260901165842 86 194 0.0 7.0 0.00 0.09 0.00 74 1011.4
20260901165737 86 197 0.0 7.0 0.00 0.09 0.00 74 1011.5
20260901165636 86 219 0.0 5.0 0.00 0.09 0.00 73 1011.4
20260901165532 86 178 0.0 5.0 0.00 0.09 0.00 74 1011.5
20260901165429 86 176 0.0 5.0 0.00 0.09 0.00 74 1011.5
20260901165324 86 241 0.0 5.0 0.00 0.09 0.00 74 1011.6
20260901165220 86 201 0.0 4.0 0.00 0.09 0.00 75 1011.6
20260901165113 86 246 0.0 4.0 0.00 0.09 0.00 75 1011.6
20260901165005 86 205 0.0 4.0 0.00 0.09 0.00 75 1011.5
20260901164903 86 242 0.0 4.0 0.00 0.09 0.00 74 1011.6
20260901164756 86 192 0.0 4.0 0.00 0.09 0.00 74 1011.5
20260901164652 86 189 0.0 2.0 0.00 0.09 0.00 75 1011.5
20260901164548 86 148 0.0 0.0 0.00 0.09 0.00 76 1011.6
20260901164441 86 168 0.0 4.0 0.00 0.09 0.00 75 1011.6
20260901164334 85 223 0.0 4.0 0.00 0.09 0.00 75 1011.6
20260901164227 85 175 0.0 4.0 0.00 0.09 0.00 74 1011.6
20260901164120 86 175 0.0 4.0 0.00 0.09 0.00 74 1011.6
20260901163755 86 187 0.0 0.0 0.00 0.09 0.00 75 1011.7
20260901163648 85 211 0.0 4.0 0.00 0.09 0.00 75 1011.7
20260901163322 86 176 0.0 4.0 0.00 0.09 0.00 74 1011.7
20260901163217 86 182 0.0 4.0 0.00 0.09 0.00 74 1011.6
20260901162850 85 226 0.0 2.0 0.00 0.09 0.00 75 1011.6
20260901162747 85 242 1.0 6.0 0.00 0.09 0.00 74 1011.6
20260901162424 85 213 1.0 5.0 0.00 0.09 0.00 74 1011.6
20260901162321 85 178 0.0 5.0 0.00 0.09 0.00 75 1011.6
20260901162214 85 192 1.0 5.0 0.00 0.09 0.00 75 1011.7
20260901162110 85 192 1.0 5.0 0.00 0.09 0.00 75 1011.7
20260901162003 85 193 1.0 5.0 0.00 0.09 0.00 73 1011.7
20260901161859 85 183 1.0 5.0 0.00 0.09 0.00 73 1011.8
20260901161754 85 201 1.0 5.0 0.00 0.09 0.00 73 1011.7
20260901161647 85 192 1.0 5.0 0.00 0.09 0.00 75 1011.7
20260901161542 85 178 1.0 4.0 0.00 0.09 0.00 76 1011.7
20260901161436 85 178 1.0 4.0 0.00 0.09 0.00 75 1011.8
20260901161112 85 183 0.0 4.0 0.00 0.09 0.00 75 1011.8
20260901161007 85 194 0.0 4.0 0.00 0.09 0.00 75 1011.8
20260901160904 85 174 0.0 4.0 0.00 0.09 0.00 76 1011.8
20260901160539 85 202 1.0 6.0 0.00 0.09 0.00 76 1011.8
20260901160431 85 159 1.0 6.0 0.00 0.09 0.00 77 1011.8
20260901160325 85 180 1.0 6.0 0.00 0.09 0.00 76 1011.8
20260901160223 85 180 1.0 6.0 0.00 0.09 0.00 76 1011.8
20260901160120 84 180 1.0 6.0 0.00 0.09 0.00 75 1011.8
20260901155757 85 167 0.0 4.0 0.00 0.09 0.00 75 1011.9
20260901155651 85 167 0.0 4.0 0.00 0.09 0.00 76 1011.9
20260901155544 84 166 0.0 4.0 0.00 0.09 0.00 76 1011.9
20260901155439 84 204 0.0 4.0 0.00 0.09 0.00 76 1011.9
20260901155334 84 221 0.0 4.0 0.00 0.09 0.00 75 1011.9
20260901155011 84 195 0.0 4.0 0.00 0.09 0.00 76 1011.9
20260901154904 84 195 0.0 4.0 0.00 0.09 0.00 77 1011.9
20260901154759 84 195 0.0 4.0 0.00 0.09 0.00 77 1012.0
20260901154653 84 195 0.0 4.0 0.00 0.09 0.00 77 1012.0
20260901154548 84 195 0.0 4.0 0.00 0.09 0.00 79 1012.1
20260901154222 84 202 0.0 4.0 0.00 0.09 0.00 77 1012.1
20260901154115 84 262 0.0 4.0 0.00 0.09 0.00 77 1012.0
20260901154006 84 249 0.0 4.0 0.00 0.09 0.00 75 1012.0
20260901153903 84 249 0.0 4.0 0.00 0.09 0.00 75 1012.0
20260901153756 84 249 0.0 4.0 0.00 0.09 0.00 76 1012.0
20260901153651 84 248 0.0 4.0 0.00 0.09 0.00 76 1012.0
20260901153546 84 227 0.0 0.0 0.00 0.09 0.00 78 1012.0
20260901153442 83 227 0.0 0.0 0.00 0.09 0.00 77 1012.0
20260901153339 83 227 0.0 0.0 0.00 0.09 0.00 76 1012.0
20260901153012 83 292 0.0 0.0 0.00 0.09 0.00 78 1012.0
20260901152907 83 292 0.0 0.0 0.00 0.09 0.00 78 1011.9
20260901152802 83 292 0.0 0.0 0.00 0.09 0.00 77 1012.0
20260901152654 83 292 0.0 0.0 0.00 0.09 0.00 77 1011.9
20260901152116 82 291 0.0 0.0 0.00 0.09 0.00 77 1011.9
20260901152012 82 292 0.0 0.0 0.00 0.09 0.00 78 1011.9
20260901151910 82 292 0.0 0.0 0.00 0.09 0.00 78 1011.9
20260901151807 82 292 0.0 0.0 0.00 0.09 0.00 78 1011.9
20260901151705 82 292 0.0 4.0 0.00 0.09 0.00 77 1011.9
20260901151559 82 292 0.0 4.0 0.00 0.09 0.00 77 1011.9
20260901151451 82 293 0.0 4.0 0.00 0.09 0.00 77 1011.9
20260901151344 82 255 0.0 1.0 0.00 0.09 0.00 78 1011.9
20260901151022 82 246 0.0 4.0 0.00 0.09 0.00 76 1011.9
20260901150659 82 262 0.0 0.0 0.00 0.09 0.00 78 1011.9
20260901150555 82 283 0.0 4.0 0.00 0.09 0.00 79 1011.9
20260901150447 82 284 0.0 4.0 0.00 0.09 0.00 78 1011.9
20260901150341 82 192 0.0 4.0 0.00 0.09 0.00 79 1012.0
20260901150016 81 306 0.0 3.0 0.00 0.09 0.00 79 1012.0
20260901145911 81 208 0.0 4.0 0.00 0.09 0.00 79 1012.0
20260901145542 81 207 0.0 4.0 0.00 0.09 0.00 79 1012.1
20260901145440 81 217 0.0 4.0 0.00 0.09 0.00 80 1012.0
20260901145333 81 219 1.0 4.0 0.00 0.09 0.00 79 1012.1
20260901145227 81 218 1.0 4.0 0.00 0.09 0.00 79 1012.1
20260901144902 81 223 1.0 4.0 0.00 0.09 0.00 80 1012.0
20260901144755 80 223 1.0 4.0 0.00 0.09 0.00 79 1012.0
20260901144648 80 223 1.0 4.0 0.00 0.09 0.00 81 1012.1
20260901144541 80 271 1.0 4.0 0.00 0.09 0.00 80 1012.1
20260901144219 80 262 0.0 4.0 0.00 0.09 0.00 81 1012.2
20260901144116 80 259 0.0 4.0 0.00 0.09 0.00 81 1012.2
20260901144010 80 265 0.0 3.0 0.00 0.09 0.00 81 1012.2
20260901143903 80 265 0.0 3.0 0.00 0.09 0.00 80 1012.1
20260901143758 80 286 0.0 3.0 0.00 0.09 0.00 80 1012.1
20260901143432 79 232 0.0 0.0 0.00 0.09 0.00 82 1012.1
20260901143105 79 217 0.0 0.0 0.00 0.09 0.00 81 1012.2
20260901143000 79 251 0.0 6.0 0.00 0.09 0.00 82 1012.3
20260901142641 79 227 0.0 6.0 0.00 0.09 0.00 81 1012.3
20260901142533 79 261 0.0 6.0 0.00 0.09 0.00 81 1012.4
20260901142427 79 275 0.0 6.0 0.00 0.09 0.00 81 1012.3
20260901142322 79 213 0.0 6.0 0.00 0.09 0.00 81 1012.3
20260901141958 79 210 0.0 3.0 0.00 0.09 0.00 82 1012.3
20260901141855 79 182 0.0 3.0 0.00 0.09 0.00 83 1012.3
20260901141751 79 218 0.0 0.0 0.00 0.09 0.00 83 1012.3
20260901141648 79 219 0.0 0.0 0.00 0.09 0.00 83 1012.3
20260901141544 79 219 0.0 0.0 0.00 0.09 0.00 83 1012.3
20260901141436 78 219 0.0 3.0 0.00 0.09 0.00 83 1012.3
20260901141332 78 192 0.0 0.0 0.00 0.09 0.00 83 1012.4
20260901141227 78 192 0.0 0.0 0.00 0.09 0.00 83 1012.4
20260901140901 78 200 0.0 0.0 0.00 0.09 0.00 83 1012.4
20260901140756 78 200 0.0 1.0 0.00 0.09 0.00 83 1012.3
20260901140653 78 201 0.0 1.0 0.00 0.09 0.00 83 1012.3
20260901140546 78 178 0.0 0.0 0.00 0.09 0.00 83 1012.3
20260901140225 78 269 0.0 0.0 0.00 0.09 0.00 83 1012.2
20260901140119 78 269 0.0 0.0 0.00 0.09 0.00 84 1012.3
20260901140016 78 260 0.0 0.0 0.00 0.09 0.00 83 1012.2
20260901135909 78 260 0.0 0.0 0.00 0.09 0.00 83 1012.2
20260901135802 77 260 0.0 2.0 0.00 0.09 0.00 83 1012.2
20260901135658 77 257 0.0 2.0 0.00 0.09 0.00 83 1012.2
20260901135337 77 259 0.0 0.0 0.00 0.09 0.00 84 1012.1
20260901135012 77 255 0.0 0.0 0.00 0.09 0.00 84 1012.1
20260901134905 77 255 0.0 0.0 0.00 0.09 0.00 84 1012.0
20260901134759 77 256 0.0 0.0 0.00 0.09 0.00 84 1012.0
20260901134652 77 256 0.0 0.0 0.00 0.09 0.00 84 1012.0
20260901134548 77 256 0.0 0.0 0.00 0.09 0.00 84 1012.0
20260901134443 77 256 0.0 0.0 0.00 0.09 0.00 84 1011.9
20260901134114 77 255 0.0 2.0 0.00 0.09 0.00 84 1011.9
20260901134007 77 255 0.0 2.0 0.00 0.09 0.00 84 1011.9
20260901133643 77 273 0.0 5.0 0.00 0.09 0.00 85 1012.0
20260901133535 76 229 0.0 1.0 0.00 0.09 0.00 85 1012.0
20260901133433 76 228 0.0 1.0 0.00 0.09 0.00 85 1011.9
20260901133326 76 258 0.0 6.0 0.00 0.09 0.00 85 1011.9
20260901133222 76 248 0.0 6.0 0.00 0.09 0.00 85 1011.9
20260901133115 76 261 0.0 6.0 0.00 0.09 0.00 85 1011.9
20260901133008 76 266 1.0 6.0 0.00 0.09 0.00 86 1011.9
20260901132645 76 248 1.0 6.0 0.00 0.09 0.00 87 1012.0
20260901132540 75 244 1.0 6.0 0.00 0.09 0.00 87 1012.0
20260901132432 75 271 1.0 6.0 0.00 0.09 0.00 87 1012.0
20260901132108 75 265 0.0 3.0 0.00 0.09 0.00 89 1012.0
20260901132002 75 267 0.0 3.0 0.00 0.09 0.00 89 1011.9
20260901131856 75 229 0.0 3.0 0.00 0.09 0.00 90 1011.9
20260901131748 75 256 0.0 3.0 0.00 0.09 0.00 90 1011.9
20260901131644 75 242 0.0 3.0 0.00 0.09 0.00 91 1011.8
20260901131539 74 254 0.0 0.0 0.00 0.09 0.00 91 1011.8
20260901131213 74 254 0.0 4.0 0.00 0.09 0.00 92 1011.8
20260901131108 74 254 0.0 4.0 0.00 0.09 0.00 92 1011.8
20260901131006 74 263 0.0 4.0 0.00 0.09 0.00 92 1011.8
20260901130902 74 263 0.0 4.0 0.00 0.09 0.00 93 1011.8
20260901130754 74 287 0.0 0.0 0.00 0.09 0.00 93 1011.8
20260901130648 73 292 0.0 0.0 0.00 0.09 0.00 93 1011.8
20260901130546 73 261 0.0 0.0 0.00 0.09 0.00 93 1011.8
20260901130439 73 267 0.0 0.0 0.00 0.09 0.00 93 1011.8
20260901130117 73 267 0.0 0.0 0.00 0.09 0.00 94 1011.9
20260901130012 73 267 0.0 0.0 0.00 0.09 0.00 94 1011.9
20260901125905 73 267 0.0 0.0 0.00 0.09 0.00 94 1011.9
20260901125758 73 211 0.0 0.0 0.00 0.09 0.00 94 1011.9
20260901125653 73 211 0.0 0.0 0.00 0.09 0.00 94 1011.9
20260901125551 73 211 0.0 0.0 0.00 0.09 0.00 94 1011.9
20260901125229 73 211 0.0 0.0 0.00 0.09 0.00 94 1011.9
20260901125124 73 211 0.0 0.0 0.00 0.09 0.00 94 1012.0
20260901125020 72 211 0.0 0.0 0.00 0.09 0.00 94 1012.0
20260901124651 72 211 0.0 0.0 0.00 0.09 0.00 94 1011.9
20260901124548 72 211 0.0 0.0 0.00 0.09 0.00 94 1011.9
20260901124443 72 211 0.0 0.0 0.00 0.09 0.00 94 1011.9
20260901124340 72 207 0.0 0.0 0.00 0.09 0.00 94 1011.9
20260901124014 72 207 0.0 0.0 0.00 0.09 0.00 94 1011.9
20260901123909 72 207 0.0 0.0 0.00 0.09 0.00 94 1011.9
20260901123803 72 206 0.0 0.0 0.00 0.09 0.00 94 1011.9
20260901123658 72 206 0.0 0.0 0.00 0.09 0.00 94 1011.9
20260901123552 72 206 0.0 0.0 0.00 0.09 0.00 94 1011.9
20260901123447 72 206 0.0 0.0 0.00 0.09 0.00 94 1011.9
20260901123344 72 206 0.0 0.0 0.00 0.09 0.00 94 1011.9
20260901123236 72 206 0.0 0.0 0.00 0.09 0.00 94 1011.9
20260901123130 72 206 0.0 0.0 0.00 0.09 0.00 94 1011.9
20260901123027 72 206 0.0 0.0 0.00 0.09 0.00 94 1011.8
20260901122704 72 206 0.0 0.0 0.00 0.09 0.00 94 1011.8
20260901122558 72 206 0.0 0.0 0.00 0.09 0.00 94 1011.9
20260901122454 72 206 0.0 0.0 0.00 0.09 0.00 94 1011.9
20260901122348 72 206 0.0 0.0 0.00 0.09 0.00 94 1011.9
20260901122246 72 206 0.0 0.0 0.00 0.09 0.00 94 1011.9
20260901122141 72 206 0.0 0.0 0.00 0.09 0.00 94 1011.9
20260901122034 72 206 0.0 0.0 0.00 0.09 0.00 94 1011.9
20260901121445 72 206 0.0 0.0 0.00 0.09 0.00 94 1012.0
20260901121339 72 206 0.0 0.0 0.00 0.09 0.00 94 1012.0
20260901121235 71 206 0.0 0.0 0.00 0.09 0.00 94 1011.9
20260901121129 71 206 0.0 0.0 0.00 0.09 0.00 94 1011.9
20260901121027 71 206 0.0 0.0 0.00 0.09 0.00 94 1012.0
20260901120924 71 206 0.0 0.0 0.00 0.09 0.00 94 1012.0
20260901120820 71 206 0.0 0.0 0.00 0.09 0.00 94 1012.0
20260901120717 71 206 0.0 0.0 0.00 0.09 0.00 94 1012.0
20260901120614 71 206 0.0 0.0 0.00 0.09 0.00 94 1012.0
20260901120509 71 206 0.0 0.0 0.00 0.09 0.00 94 1012.1
20260901120401 71 206 0.0 0.0 0.00 0.09 0.00 94 1012.0
20260901120255 71 206 0.0 0.0 0.00 0.09 0.00 94 1012.0
20260901120150 71 206 0.0 0.0 0.00 0.09 0.00 94 1012.0
20260901115610 71 206 0.0 0.0 0.00 0.09 0.00 94 1012.0
20260901115505 71 206 0.0 0.0 0.00 0.09 0.00 94 1012.0
20260901114922 71 206 0.0 0.0 0.00 0.09 0.00 94 1011.9
20260901114819 71 206 0.0 0.0 0.00 0.09 0.00 94 1012.0
20260901114712 71 206 0.0 0.0 0.00 0.09 0.00 94 1011.9
20260901114343 71 206 0.0 0.0 0.00 0.09 0.00 94 1011.9
20260901114236 71 206 0.0 0.0 0.00 0.09 0.00 94 1011.9
20260901114132 71 206 0.0 0.0 0.00 0.09 0.00 94 1011.9
20260901113806 71 206 0.0 0.0 0.00 0.09 0.00 94 1011.9
20260901113700 71 206 0.0 0.0 0.00 0.09 0.00 94 1011.9
20260901113556 71 206 0.0 0.0 0.00 0.09 0.00 94 1011.8
20260901113453 71 206 0.0 0.0 0.00 0.09 0.00 94 1011.8
20260901113348 71 206 0.0 0.0 0.00 0.09 0.00 94 1011.8
20260901113245 71 206 0.0 0.0 0.00 0.09 0.00 94 1011.8
20260901113138 71 206 0.0 0.0 0.00 0.09 0.00 94 1011.8
20260901113036 71 206 0.0 0.0 0.00 0.09 0.00 94 1011.8
20260901112928 71 206 0.0 0.0 0.00 0.09 0.00 94 1011.7
20260901112824 71 206 0.0 0.0 0.00 0.09 0.00 94 1011.7
20260901112719 71 206 0.0 0.0 0.00 0.09 0.00 94 1011.7
20260901112616 71 206 0.0 0.0 0.00 0.09 0.00 94 1011.7
20260901112513 70 206 0.0 0.0 0.00 0.09 0.00 94 1011.7
20260901112148 70 206 0.0 0.0 0.00 0.09 0.00 94 1011.7
20260901112042 70 206 0.0 0.0 0.00 0.09 0.00 94 1011.7
20260901111715 70 206 0.0 0.0 0.00 0.09 0.00 94 1011.7
20260901111611 70 206 0.0 0.0 0.00 0.09 0.00 94 1011.7
20260901111507 70 206 0.0 0.0 0.00 0.09 0.00 94 1011.7
20260901111144 70 206 0.0 0.0 0.00 0.09 0.00 94 1011.8
20260901111039 70 206 0.0 0.0 0.00 0.09 0.00 94 1011.7
20260901110935 70 206 0.0 0.0 0.00 0.09 0.00 94 1011.7
20260901110828 70 206 0.0 0.0 0.00 0.09 0.00 94 1011.7
20260901110725 70 206 0.0 0.0 0.00 0.09 0.00 94 1011.7
20260901110622 70 206 0.0 0.0 0.00 0.09 0.00 94 1011.6
20260901110519 70 206 0.0 0.0 0.00 0.09 0.00 94 1011.6
20260901110414 70 206 0.0 0.0 0.00 0.09 0.00 94 1011.6
20260901110307 70 206 0.0 0.0 0.00 0.09 0.00 94 1011.6
20260901110203 70 206 0.0 0.0 0.00 0.09 0.00 94 1011.6
20260901105843 70 207 0.0 0.0 0.00 0.09 0.00 93 1011.6
20260901105735 70 207 0.0 0.0 0.00 0.09 0.00 93 1011.7
20260901105629 70 207 0.0 0.0 0.00 0.09 0.00 93 1011.6
20260901105524 70 207 0.0 0.0 0.00 0.09 0.00 94 1011.6
20260901105421 70 207 0.0 0.0 0.00 0.09 0.00 94 1011.6
20260901105056 70 207 0.0 0.0 0.00 0.09 0.00 94 1011.6
20260901104953 70 207 0.0 0.0 0.00 0.09 0.00 94 1011.5
20260901104631 70 207 0.0 0.0 0.00 0.09 0.00 94 1011.5
20260901104525 70 207 0.0 0.0 0.00 0.09 0.00 94 1011.5
20260901104420 70 207 0.0 0.0 0.00 0.09 0.00 94 1011.4
20260901104313 70 207 0.0 0.0 0.00 0.09 0.00 94 1011.5
20260901104209 70 207 0.0 0.0 0.00 0.09 0.00 94 1011.5
20260901104103 70 207 0.0 0.0 0.00 0.09 0.00 94 1011.5
20260901103959 70 207 0.0 0.0 0.00 0.09 0.00 94 1011.5
20260901103851 70 207 0.0 0.0 0.00 0.09 0.00 94 1011.5
20260901103747 70 207 0.0 0.0 0.00 0.09 0.00 94 1011.5
20260901103644 70 207 0.0 0.0 0.00 0.09 0.00 94 1011.5
20260901103538 70 207 0.0 0.0 0.00 0.09 0.00 94 1011.5
20260901103431 70 207 0.0 0.0 0.00 0.09 0.00 94 1011.5
20260901103323 70 207 0.0 0.0 0.00 0.09 0.00 93 1011.5
20260901103221 70 207 0.0 0.0 0.00 0.09 0.00 93 1011.5
20260901103115 70 207 0.0 0.0 0.00 0.09 0.00 93 1011.6
20260901103012 70 207 0.0 0.0 0.00 0.09 0.00 93 1011.6
20260901102910 70 207 0.0 0.0 0.00 0.09 0.00 93 1011.6
20260901102805 70 207 0.0 0.0 0.00 0.09 0.00 93 1011.6
20260901102442 70 207 0.0 0.0 0.00 0.09 0.00 93 1011.5
20260901102119 70 207 0.0 0.0 0.00 0.09 0.00 93 1011.5
20260901101756 70 207 0.0 0.0 0.00 0.09 0.00 93 1011.5
20260901101650 70 207 0.0 0.0 0.00 0.09 0.00 93 1011.5
20260901101546 70 207 0.0 0.0 0.00 0.09 0.00 93 1011.5
20260901101443 70 207 0.0 0.0 0.00 0.09 0.00 93 1011.5
20260901101341 70 207 0.0 0.0 0.00 0.09 0.00 93 1011.5
20260901101238 70 207 0.0 0.0 0.00 0.09 0.00 93 1011.5
20260901101132 70 207 0.0 0.0 0.00 0.09 0.00 94 1011.5
20260901100802 70 207 0.0 0.0 0.00 0.09 0.00 93 1011.5
20260901100439 70 207 0.0 0.0 0.00 0.09 0.00 93 1011.5
20260901100331 69 207 0.0 0.0 0.00 0.09 0.00 94 1011.5
20260901100009 69 207 0.0 0.0 0.00 0.09 0.00 93 1011.5
20260901095644 69 207 0.0 0.0 0.00 0.09 0.00 93 1011.4
20260901095535 69 207 0.0 0.0 0.00 0.09 0.00 92 1011.4
20260901095428 69 207 0.0 0.0 0.00 0.09 0.00 92 1011.4
20260901095322 69 207 0.0 0.0 0.00 0.09 0.00 92 1011.4
20260901095217 69 207 0.0 0.0 0.00 0.09 0.00 92 1011.4
20260901095115 69 207 0.0 0.0 0.00 0.09 0.00 93 1011.4
20260901095009 69 207 0.0 0.0 0.00 0.09 0.00 93 1011.4
20260901094907 69 207 0.0 0.0 0.00 0.09 0.00 93 1011.4
20260901094801 69 207 0.0 0.0 0.00 0.09 0.00 93 1011.4
20260901094655 69 207 0.0 0.0 0.00 0.09 0.00 93 1011.4
20260901094548 69 207 0.0 0.0 0.00 0.09 0.00 93 1011.4
20260901094009 70 207 0.0 0.0 0.00 0.09 0.00 93 1011.4
20260901093904 70 207 0.0 0.0 0.00 0.09 0.00 93 1011.4
20260901093757 70 207 0.0 0.0 0.00 0.09 0.00 93 1011.5
20260901093654 70 207 0.0 0.0 0.00 0.09 0.00 93 1011.4
20260901093550 70 207 0.0 0.0 0.00 0.09 0.00 93 1011.4
20260901093446 70 207 0.0 0.0 0.00 0.09 0.00 93 1011.5
20260901093339 70 207 0.0 0.0 0.00 0.09 0.00 93 1011.5
20260901093234 70 207 0.0 0.0 0.00 0.09 0.00 93 1011.5
20260901092909 70 207 0.0 0.0 0.00 0.09 0.00 93 1011.5
20260901092801 70 207 0.0 0.0 0.00 0.09 0.00 93 1011.5
20260901092658 70 207 0.0 0.0 0.00 0.09 0.00 93 1011.5
20260901092554 70 207 0.0 0.0 0.00 0.09 0.00 93 1011.5
20260901092446 70 207 0.0 0.0 0.00 0.09 0.00 93 1011.5
20260901092344 70 207 0.0 0.0 0.00 0.09 0.00 93 1011.5
20260901092240 70 207 0.0 0.0 0.00 0.09 0.00 93 1011.5
20260901092133 70 207 0.0 0.0 0.00 0.09 0.00 92 1011.5
20260901092030 70 207 0.0 0.0 0.00 0.09 0.00 92 1011.5
20260901091926 70 207 0.0 0.0 0.00 0.09 0.00 92 1011.5
20260901091822 70 207 0.0 0.0 0.00 0.09 0.00 92 1011.5
20260901091718 70 207 0.0 0.0 0.00 0.09 0.00 92 1011.5
20260901091610 70 207 0.0 0.0 0.00 0.09 0.00 92 1011.5
20260901091505 70 207 0.0 0.0 0.00 0.09 0.00 92 1011.4
20260901091403 70 207 0.0 0.0 0.00 0.09 0.00 92 1011.4
20260901091034 70 207 0.0 0.0 0.00 0.09 0.00 92 1011.4
20260901090448 70 207 0.0 0.0 0.00 0.09 0.00 92 1011.3
20260901090343 70 207 0.0 0.0 0.00 0.09 0.00 92 1011.2
20260901090235 70 207 0.0 0.0 0.00 0.09 0.00 92 1011.3
20260901090130 70 207 0.0 0.0 0.00 0.09 0.00 92 1011.2
20260901090024 70 207 0.0 0.0 0.00 0.09 0.00 92 1011.2
20260901085917 70 207 0.0 0.0 0.00 0.09 0.00 92 1011.2
20260901085813 70 207 0.0 0.0 0.00 0.09 0.00 92 1011.2
20260901085708 70 207 0.0 0.0 0.00 0.09 0.00 92 1011.2
20260901085604 70 207 0.0 0.0 0.00 0.09 0.00 92 1011.2
20260901085500 70 207 0.0 0.0 0.00 0.09 0.00 92 1011.2
20260901084914 70 207 0.0 0.0 0.00 0.09 0.00 93 1011.3
20260901084808 70 207 0.0 0.0 0.00 0.09 0.00 93 1011.3
20260901084443 70 207 0.0 0.0 0.00 0.09 0.00 93 1011.3
20260901084340 70 207 0.0 0.0 0.00 0.09 0.00 93 1011.3
20260901084233 70 207 0.0 0.0 0.00 0.09 0.00 93 1011.3
20260901084130 70 207 0.0 0.0 0.00 0.09 0.00 92 1011.3
20260901084024 70 207 0.0 0.0 0.00 0.09 0.00 92 1011.3
20260901083920 70 207 0.0 0.0 0.00 0.09 0.00 92 1011.3
20260901083817 70 207 0.0 0.0 0.00 0.09 0.00 92 1011.3
20260901083714 70 207 0.0 0.0 0.00 0.09 0.00 92 1011.2
20260901083346 70 207 0.0 0.0 0.00 0.09 0.00 92 1011.3
20260901083023 70 207 0.0 0.0 0.00 0.09 0.00 92 1011.2
20260901082920 70 207 0.0 0.0 0.00 0.09 0.00 92 1011.2
20260901082814 70 207 0.0 0.0 0.00 0.09 0.00 92 1011.2
20260901082708 70 207 0.0 0.0 0.00 0.09 0.00 92 1011.1
20260901082601 70 207 0.0 0.0 0.00 0.09 0.00 92 1011.1
20260901082456 71 207 0.0 0.0 0.00 0.09 0.00 92 1011.1
20260901082132 71 207 0.0 0.0 0.00 0.09 0.00 92 1011.1
20260901082027 71 207 0.0 0.0 0.00 0.09 0.00 92 1011.2
20260901081924 71 207 0.0 0.0 0.00 0.09 0.00 92 1011.2
20260901081819 71 207 0.0 0.0 0.00 0.09 0.00 92 1011.2
20260901081711 71 207 0.0 0.0 0.00 0.09 0.00 92 1011.2
20260901081604 71 207 0.0 0.0 0.00 0.09 0.00 92 1011.2
20260901081501 71 207 0.0 0.0 0.00 0.09 0.00 92 1011.2
20260901081133 71 207 0.0 0.0 0.00 0.09 0.00 92 1011.2
20260901081031 71 207 0.0 0.0 0.00 0.09 0.00 92 1011.2
20260901080927 71 207 0.0 0.0 0.00 0.09 0.00 92 1011.2
20260901080340 71 207 0.0 0.0 0.00 0.09 0.00 92 1011.1
20260901080237 71 207 0.0 0.0 0.00 0.09 0.00 92 1011.2
20260901080130 71 207 0.0 0.0 0.00 0.09 0.00 92 1011.2
20260901080026 71 207 0.0 0.0 0.00 0.09 0.00 92 1011.2
20260901075919 71 207 0.0 0.0 0.00 0.09 0.00 92 1011.2
20260901075817 71 207 0.0 0.0 0.00 0.09 0.00 91 1011.1
20260901075450 71 207 0.0 0.0 0.00 0.09 0.00 91 1011.1
20260901075346 71 207 0.0 0.0 0.00 0.09 0.00 91 1011.1
20260901075244 71 207 0.0 0.0 0.00 0.09 0.00 91 1011.1
20260901075142 71 207 0.0 0.0 0.00 0.09 0.00 91 1011.1
20260901074815 71 207 0.0 0.0 0.00 0.09 0.00 91 1011.0
20260901074711 71 207 0.0 0.0 0.00 0.09 0.00 91 1011.0
20260901074607 71 207 0.0 0.0 0.00 0.09 0.00 91 1011.0
20260901074502 71 207 0.0 0.0 0.00 0.09 0.00 91 1011.0
20260901073915 72 207 0.0 0.0 0.00 0.09 0.00 91 1011.0
20260901073809 72 207 0.0 0.0 0.00 0.09 0.00 91 1011.0
20260901073703 72 207 0.0 0.0 0.00 0.09 0.00 91 1011.0
20260901073559 72 207 0.0 0.0 0.00 0.09 0.00 91 1011.0
20260901073453 72 207 0.0 0.0 0.00 0.09 0.00 91 1011.0
20260901073349 72 207 0.0 0.0 0.00 0.09 0.00 91 1011.0
20260901073242 72 207 0.0 0.0 0.00 0.09 0.00 91 1011.0
20260901072914 72 207 0.0 0.0 0.00 0.09 0.00 91 1011.0
20260901072811 72 207 0.0 0.0 0.00 0.09 0.00 91 1011.0
20260901072708 72 207 0.0 0.0 0.00 0.09 0.00 91 1011.0
20260901072603 72 207 0.0 0.0 0.00 0.09 0.00 91 1011.0
20260901072458 72 207 0.0 0.0 0.00 0.09 0.00 91 1011.0
20260901072352 72 207 0.0 0.0 0.00 0.09 0.00 91 1011.0
20260901072249 72 207 0.0 0.0 0.00 0.09 0.00 91 1011.0
20260901071923 72 207 0.0 0.0 0.00 0.09 0.00 91 1011.0
20260901071820 72 207 0.0 0.0 0.00 0.09 0.00 91 1011.0
20260901071714 72 207 0.0 0.0 0.00 0.09 0.00 91 1011.0
20260901071612 72 207 0.0 0.0 0.00 0.09 0.00 91 1011.0
20260901071510 72 207 0.0 0.0 0.00 0.09 0.00 91 1011.0
20260901071406 72 207 0.0 0.0 0.00 0.09 0.00 91 1010.9
20260901071044 72 207 0.0 0.0 0.00 0.09 0.00 91 1010.9
20260901070937 72 207 0.0 0.0 0.00 0.09 0.00 90 1010.9
20260901070836 72 207 0.0 0.0 0.00 0.09 0.00 90 1011.0
20260901070733 72 207 0.0 0.0 0.00 0.09 0.00 90 1010.9
20260901070628 72 207 0.0 0.0 0.00 0.09 0.00 90 1011.0
20260901070303 73 207 0.0 0.0 0.00 0.09 0.00 90 1011.0
20260901070157 73 207 0.0 0.0 0.00 0.09 0.00 90 1011.0
20260901070050 73 207 0.0 0.0 0.00 0.09 0.00 90 1011.0
20260901065948 73 207 0.0 0.0 0.00 0.09 0.00 90 1010.9
20260901065843 73 207 0.0 0.0 0.00 0.09 0.00 90 1010.9
20260901065735 73 207 0.0 0.0 0.00 0.09 0.00 90 1010.9
20260901065628 73 207 0.0 0.0 0.00 0.09 0.00 90 1011.0
20260901065525 73 207 0.0 0.0 0.00 0.09 0.00 90 1011.0
20260901065421 73 207 0.0 0.0 0.00 0.09 0.00 90 1011.0
20260901065053 73 207 0.0 0.0 0.00 0.09 0.00 90 1011.0
20260901064949 73 207 0.0 0.0 0.00 0.09 0.00 90 1011.0
20260901064845 73 207 0.0 0.0 0.00 0.09 0.00 89 1011.0
20260901064741 73 207 0.0 0.0 0.00 0.09 0.00 89 1011.0
20260901064638 73 207 0.0 0.0 0.00 0.09 0.00 89 1011.0
20260901064535 73 207 0.0 0.0 0.00 0.09 0.00 89 1011.0
20260901064427 73 207 0.0 0.0 0.00 0.09 0.00 89 1011.0
20260901064104 74 207 0.0 0.0 0.00 0.09 0.00 89 1011.0
20260901064000 74 207 0.0 0.0 0.00 0.09 0.00 89 1011.0
20260901063856 74 207 0.0 0.0 0.00 0.09 0.00 89 1011.0
20260901063751 74 207 0.0 0.0 0.00 0.09 0.00 89 1011.0
20260901063646 74 207 0.0 0.0 0.00 0.09 0.00 89 1011.0
20260901063540 74 207 0.0 0.0 0.00 0.09 0.00 89 1011.0
20260901063435 74 207 0.0 0.0 0.00 0.09 0.00 89 1011.0
20260901063330 74 207 0.0 0.0 0.00 0.09 0.00 88 1010.9
20260901063226 74 207 0.0 0.0 0.00 0.09 0.00 88 1011.0
20260901063120 74 207 0.0 0.0 0.00 0.09 0.00 88 1010.9
20260901063014 74 207 0.0 0.0 0.00 0.09 0.00 88 1010.9
20260901062906 74 207 0.0 0.0 0.00 0.09 0.00 88 1011.0
20260901062804 74 207 0.0 0.0 0.00 0.09 0.00 88 1011.0
20260901062702 75 207 0.0 0.0 0.00 0.09 0.00 88 1011.0
20260901062555 75 207 0.0 0.0 0.00 0.09 0.00 88 1011.0
20260901062451 75 207 0.0 0.0 0.00 0.09 0.00 88 1011.0
20260901062349 75 207 0.0 0.0 0.00 0.09 0.00 88 1011.0
20260901062242 75 207 0.0 0.0 0.00 0.09 0.00 88 1011.0
20260901062137 75 207 0.0 0.0 0.00 0.09 0.00 88 1011.0
20260901062033 75 207 0.0 0.0 0.00 0.09 0.00 88 1011.0
20260901061706 75 207 0.0 0.0 0.00 0.09 0.00 88 1011.0
20260901061340 75 207 0.0 0.0 0.00 0.09 0.00 88 1011.0
20260901061236 75 207 0.0 0.0 0.00 0.09 0.00 88 1011.0
20260901061133 75 207 0.0 0.0 0.00 0.09 0.00 88 1011.0
20260901061027 75 207 0.0 0.0 0.00 0.09 0.00 88 1011.0
20260901060922 75 207 0.0 0.0 0.00 0.09 0.00 88 1011.0
20260901060556 75 207 0.0 0.0 0.00 0.09 0.00 88 1011.1
20260901060226 75 207 0.0 0.0 0.00 0.09 0.00 87 1011.1
20260901060124 75 207 0.0 0.0 0.00 0.09 0.00 87 1011.1
20260901060021 75 207 0.0 0.0 0.00 0.09 0.00 87 1011.1
20260901055919 75 207 0.0 0.0 0.00 0.09 0.00 88 1011.1
20260901055814 76 207 0.0 0.0 0.00 0.09 0.00 87 1011.2
20260901055709 76 207 0.0 0.0 0.00 0.09 0.00 87 1011.1
20260901055602 76 207 0.0 0.0 0.00 0.09 0.00 87 1011.1
20260901055455 76 207 0.0 0.0 0.00 0.09 0.00 87 1011.2
20260901055349 76 207 0.0 0.0 0.00 0.09 0.00 87 1011.2
20260901055247 76 207 0.0 0.0 0.00 0.09 0.00 87 1011.3
20260901055141 76 207 0.0 0.0 0.00 0.09 0.00 87 1011.2
20260901055035 76 207 0.0 0.0 0.00 0.09 0.00 87 1011.2
20260901054929 76 207 0.0 0.0 0.00 0.09 0.00 87 1011.2
20260901054824 76 207 0.0 0.0 0.00 0.09 0.00 87 1011.3
20260901054721 76 207 0.0 0.0 0.00 0.09 0.00 87 1011.3
20260901054614 76 207 0.0 0.0 0.00 0.09 0.00 87 1011.3
20260901054508 76 207 0.0 0.0 0.00 0.09 0.00 87 1011.3
20260901054401 76 215 0.0 0.0 0.00 0.09 0.00 87 1011.3
20260901054259 76 215 0.0 0.0 0.00 0.09 0.00 87 1011.3
20260901054152 76 215 0.0 0.0 0.00 0.09 0.00 87 1011.2
20260901054047 76 215 0.0 0.0 0.00 0.09 0.00 87 1011.2
20260901053941 76 215 0.0 0.0 0.00 0.09 0.00 87 1011.2
20260901053836 76 215 0.0 0.0 0.00 0.09 0.00 87 1011.2
20260901053510 76 217 0.0 0.0 0.00 0.09 0.00 87 1011.2
20260901053404 76 217 0.0 0.0 0.00 0.09 0.00 87 1011.2
20260901053037 76 222 0.0 0.0 0.00 0.09 0.00 87 1011.2
20260901052934 76 222 0.0 0.0 0.00 0.09 0.00 87 1011.2
20260901052609 76 222 0.0 0.0 0.00 0.09 0.00 87 1011.2
20260901052503 76 222 0.0 0.0 0.00 0.09 0.00 87 1011.2
20260901052400 76 222 0.0 0.0 0.00 0.09 0.00 87 1011.2
20260901052257 76 222 0.0 1.0 0.00 0.09 0.00 87 1011.2
20260901052156 76 222 0.0 1.0 0.00 0.09 0.00 87 1011.2
20260901052052 76 246 0.0 0.0 0.00 0.09 0.00 87 1011.2
20260901051723 76 236 0.0 1.0 0.00 0.09 0.00 87 1011.2
20260901051620 76 201 0.0 0.0 0.00 0.09 0.00 87 1011.2
20260901051513 76 201 0.0 0.0 0.00 0.09 0.00 87 1011.3
20260901051410 76 199 0.0 1.0 0.00 0.09 0.00 87 1011.3
20260901051304 76 198 0.0 1.0 0.00 0.09 0.00 88 1011.3
20260901051156 76 187 0.0 0.0 0.00 0.09 0.00 88 1011.2
20260901051053 76 187 0.0 3.0 0.00 0.09 0.00 88 1011.2
20260901050950 76 164 0.0 3.0 0.00 0.09 0.00 88 1011.2
20260901050845 76 195 0.0 1.0 0.00 0.09 0.00 88 1011.3
20260901050741 76 192 0.0 0.0 0.00 0.09 0.00 88 1011.3
20260901050638 76 192 0.0 0.0 0.00 0.09 0.00 88 1011.3
20260901050533 76 192 0.0 0.0 0.00 0.09 0.00 88 1011.3
20260901050428 76 192 0.0 0.0 0.00 0.09 0.00 88 1011.2
20260901050106 76 188 0.0 0.0 0.00 0.09 0.00 88 1011.1
20260901050000 76 188 0.0 0.0 0.00 0.09 0.00 88 1011.1
20260901045855 76 215 0.0 0.0 0.00 0.09 0.00 88 1011.1
20260901045748 76 215 0.0 0.0 0.00 0.09 0.00 88 1011.1
20260901045646 76 215 0.0 0.0 0.00 0.09 0.00 88 1011.2
20260901045542 76 184 0.0 0.0 0.00 0.09 0.00 88 1011.2
20260901045215 76 183 0.0 0.0 0.00 0.09 0.00 88 1011.2
20260901045110 76 184 0.0 0.0 0.00 0.09 0.00 88 1011.2
20260901044746 76 203 0.0 0.0 0.00 0.09 0.00 88 1011.2
20260901044421 76 190 0.0 0.0 0.00 0.09 0.00 88 1011.1
20260901044315 76 175 0.0 0.0 0.00 0.09 0.00 88 1011.1
20260901044214 76 186 0.0 0.0 0.00 0.09 0.00 88 1011.1
20260901044105 76 224 0.0 0.0 0.00 0.09 0.00 88 1011.1
20260901043959 76 224 0.0 0.0 0.00 0.09 0.00 88 1011.1
20260901043851 76 227 0.0 0.0 0.00 0.09 0.00 89 1011.1
20260901043748 76 186 0.0 1.0 0.00 0.09 0.00 89 1011.1
20260901043641 76 180 0.0 1.0 0.00 0.09 0.00 89 1011.1
20260901043539 76 180 0.0 0.0 0.00 0.09 0.00 89 1011.1
20260901043434 76 180 0.0 1.0 0.00 0.09 0.00 89 1011.1
20260901043330 76 180 0.0 1.0 0.00 0.09 0.00 89 1011.2
20260901043008 76 224 0.0 0.0 0.00 0.09 0.00 89 1011.1
20260901042905 76 225 0.0 0.0 0.00 0.09 0.00 89 1011.1
20260901042759 75 225 0.0 2.0 0.00 0.09 0.00 89 1011.1
20260901042654 75 223 0.0 2.0 0.00 0.09 0.00 89 1011.1
20260901042547 75 220 0.0 0.0 0.00 0.09 0.00 89 1011.1
20260901041959 75 195 0.0 0.0 0.00 0.09 0.00 89 1011.0
20260901041853 75 196 0.0 0.0 0.00 0.09 0.00 89 1011.1
20260901041751 75 261 0.0 0.0 0.00 0.09 0.00 89 1011.1
20260901041644 75 265 0.0 0.0 0.00 0.09 0.00 89 1011.1
20260901041539 75 183 0.0 0.0 0.00 0.09 0.00 89 1011.1
20260901041432 75 183 0.0 0.0 0.00 0.09 0.00 89 1011.1
20260901041326 75 182 0.0 1.0 0.00 0.09 0.00 89 1011.1
20260901041220 75 183 0.0 1.0 0.00 0.09 0.00 89 1011.0
20260901040637 75 190 0.0 0.0 0.00 0.09 0.00 89 1011.0
20260901040312 75 190 0.0 0.0 0.00 0.09 0.00 89 1011.0
20260901040206 75 173 0.0 0.0 0.00 0.09 0.00 89 1011.0
20260901035846 75 174 0.0 0.0 0.00 0.09 0.10 89 1011.1
20260901035738 75 174 0.0 0.0 0.00 0.09 0.10 89 1011.1
20260901034932 75 163 0.0 0.0 0.00 0.09 0.10 89 1011.2
20260901034829 75 163 0.0 0.0 0.00 0.09 0.10 89 1011.2
20260901034505 75 161 0.0 0.0 0.00 0.09 0.10 89 1011.4
20260901034401 75 161 0.0 0.0 0.00 0.09 0.10 88 1011.4
20260901034253 75 161 0.0 0.0 0.00 0.09 0.10 88 1011.4
20260901033933 75 161 0.0 0.0 0.00 0.09 0.10 88 1011.5
20260901033829 75 161 0.0 0.0 0.00 0.09 0.10 88 1011.5
20260901033722 75 161 0.0 0.0 0.00 0.09 0.10 88 1011.5
20260901033618 75 161 0.0 0.0 0.00 0.09 0.10 88 1011.5
20260901033513 75 161 0.0 0.0 0.00 0.09 0.10 88 1011.6
20260901033150 75 161 0.0 0.0 0.00 0.09 0.10 88 1011.5
20260901032828 75 161 0.0 0.0 0.00 0.09 0.10 88 1011.6
20260901032725 75 161 0.0 0.0 0.00 0.09 0.10 88 1011.6
20260901032622 75 161 0.0 0.0 0.00 0.09 0.10 88 1011.6
20260901032520 75 161 0.0 0.0 0.00 0.09 0.10 88 1011.6
20260901032158 75 181 0.0 0.0 0.00 0.09 0.10 88 1011.6
20260901031833 75 206 0.0 0.0 0.00 0.09 0.10 87 1011.6
20260901031727 75 207 0.0 0.0 0.00 0.09 0.10 87 1011.7
20260901031624 75 207 0.0 0.0 0.00 0.09 0.10 87 1011.7
20260901031518 75 207 0.0 0.0 0.00 0.09 0.10 87 1011.6
20260901030937 75 236 0.0 0.0 0.00 0.09 0.10 87 1011.6
20260901030612 75 219 0.0 0.0 0.00 0.09 0.10 87 1011.5
20260901030504 75 219 0.0 0.0 0.00 0.09 0.10 87 1011.5
20260901030359 75 219 0.0 0.0 0.00 0.09 0.10 87 1011.6
20260901030257 75 219 0.0 0.0 0.00 0.09 0.10 87 1011.6
20260901030150 75 219 0.0 0.0 0.00 0.09 0.10 87 1011.5
20260901030047 75 219 0.0 0.0 0.00 0.09 0.10 87 1011.5
20260901025726 75 160 0.0 0.0 0.00 0.09 0.10 87 1011.6
20260901025622 75 153 0.0 0.0 0.00 0.09 0.10 86 1011.5
20260901025518 75 206 0.0 0.0 0.00 0.09 0.10 86 1011.5
20260901025412 75 205 0.0 0.0 0.00 0.09 0.10 86 1011.5
20260901025309 75 207 0.0 0.0 0.00 0.09 0.10 86 1011.5
20260901024725 75 201 0.0 6.0 0.00 0.09 0.10 86 1011.5
20260901024621 75 208 0.0 6.0 0.00 0.09 0.10 86 1011.5
20260901024517 75 187 0.0 0.0 0.00 0.09 0.10 86 1011.5
20260901024409 75 190 0.0 4.0 0.00 0.09 0.10 86 1011.5
20260901024303 75 192 0.0 4.0 0.00 0.09 0.10 86 1011.5
20260901024201 75 163 0.0 2.0 0.00 0.09 0.10 86 1011.5
20260901024056 75 163 0.0 2.0 0.00 0.09 0.10 86 1011.5
20260901023952 75 169 0.0 2.0 0.00 0.09 0.10 86 1011.5
20260901023846 75 171 0.0 0.0 0.00 0.09 0.10 86 1011.5
20260901023741 75 169 0.0 3.0 0.00 0.09 0.10 86 1011.5
20260901023639 75 130 0.0 3.0 0.00 0.09 0.10 86 1011.5
20260901023533 75 174 0.0 0.0 0.00 0.09 0.10 86 1011.5
20260901023428 75 172 0.0 0.0 0.00 0.09 0.10 86 1011.6
20260901023324 75 172 0.0 3.0 0.00 0.09 0.10 86 1011.6
20260901022956 75 186 0.0 2.0 0.00 0.09 0.10 86 1011.6
20260901022851 75 166 0.0 1.0 0.00 0.09 0.10 86 1011.6
20260901022744 75 166 0.0 1.0 0.00 0.09 0.10 86 1011.6
20260901022638 75 192 0.0 0.0 0.00 0.09 0.10 86 1011.6
20260901022531 75 193 0.0 0.0 0.00 0.09 0.10 86 1011.6
20260901022426 75 194 0.0 0.0 0.00 0.09 0.10 86 1011.6
20260901022319 75 195 0.0 0.0 0.00 0.09 0.10 86 1011.6
20260901022211 75 197 0.0 0.0 0.00 0.09 0.10 86 1011.7
20260901021846 75 200 0.0 1.0 0.00 0.09 0.10 86 1011.5
20260901021742 75 202 0.0 1.0 0.00 0.09 0.10 86 1011.6
20260901021639 75 180 0.0 0.0 0.00 0.09 0.10 86 1011.6
20260901021316 75 163 0.0 0.0 0.00 0.09 0.10 86 1011.6
20260901020951 75 188 0.0 2.0 0.00 0.09 0.10 86 1011.5
20260901020849 75 190 0.0 2.0 0.00 0.09 0.10 86 1011.4
20260901020743 75 194 0.0 0.0 0.00 0.09 0.10 86 1011.4
20260901020637 75 186 0.0 0.0 0.00 0.09 0.10 86 1011.4
20260901020530 75 182 0.0 0.0 0.00 0.09 0.10 86 1011.5
20260901020427 75 182 0.0 0.0 0.00 0.09 0.10 86 1011.5
20260901015957 75 199 0.0 3.0 0.00 0.09 0.10 86 1011.4
20260901015850 75 186 0.0 0.0 0.00 0.09 0.10 86 1011.4
20260901015743 75 187 0.0 0.0 0.00 0.09 0.10 86 1011.3
20260901015639 75 194 0.0 0.0 0.00 0.09 0.10 86 1011.3
20260901015313 75 199 0.0 2.0 0.00 0.09 0.10 86 1011.4
20260901015206 75 175 0.0 0.0 0.00 0.09 0.10 86 1011.4
20260901015059 75 175 0.0 0.0 0.00 0.09 0.10 86 1011.4
20260901014951 75 174 0.0 0.0 0.00 0.09 0.10 86 1011.4
20260901014405 74 173 0.0 0.0 0.00 0.09 0.10 87 1011.4
20260901014259 74 173 0.0 0.0 0.00 0.09 0.10 87 1011.4
20260901014152 74 173 0.0 0.0 0.00 0.09 0.10 87 1011.3
20260901014045 74 173 0.0 0.0 0.00 0.09 0.10 87 1011.3
20260901013940 74 180 0.0 0.0 0.00 0.09 0.10 87 1011.3
20260901013835 74 180 0.0 0.0 0.00 0.09 0.10 87 1011.2
20260901013728 74 180 0.0 0.0 0.00 0.09 0.10 87 1011.3
20260901013623 74 181 0.0 3.0 0.00 0.09 0.10 87 1011.3
20260901013519 74 181 0.0 3.0 0.00 0.09 0.10 87 1011.3
20260901013413 74 171 0.0 2.0 0.00 0.09 0.10 87 1011.3
20260901013310 74 207 0.0 2.0 0.00 0.09 0.10 87 1011.3
20260901012726 74 168 0.0 0.0 0.00 0.09 0.10 87 1011.1
20260901012619 74 168 0.0 0.0 0.00 0.09 0.10 87 1011.1
20260901012516 74 169 0.0 0.0 0.00 0.09 0.10 87 1011.2
20260901012151 74 175 0.0 0.0 0.00 0.09 0.10 87 1011.1
20260901011830 74 192 0.0 0.0 0.00 0.09 0.10 87 1011.2
20260901011727 74 166 0.0 0.0 0.00 0.09 0.10 87 1011.2
20260901011623 74 160 0.0 0.0 0.00 0.09 0.10 87 1011.1
20260901011520 74 159 0.0 0.0 0.00 0.09 0.10 87 1011.1
20260901011415 74 159 0.0 0.0 0.00 0.09 0.10 87 1011.1
20260901011311 74 159 0.0 0.0 0.00 0.09 0.10 88 1011.1
20260901011204 74 159 0.0 0.0 0.00 0.09 0.10 88 1011.1
20260901011058 74 146 0.0 1.0 0.00 0.09 0.10 88 1011.1
20260901010954 73 186 0.0 1.0 0.00 0.09 0.10 88 1011.1
20260901010851 73 165 0.0 0.0 0.00 0.09 0.10 88 1011.1
20260901010745 73 165 0.0 0.0 0.00 0.09 0.10 88 1011.0
20260901010639 73 165 0.0 0.0 0.00 0.09 0.10 88 1011.0
20260901010535 73 165 0.0 0.0 0.00 0.09 0.10 88 1011.0
20260901010434 73 165 0.0 0.0 0.00 0.09 0.10 88 1011.0
20260901010330 73 165 0.0 0.0 0.00 0.09 0.10 88 1011.0
20260901010223 73 164 0.0 0.0 0.00 0.09 0.10 88 1010.9
20260901010120 73 184 0.0 0.0 0.00 0.09 0.10 88 1010.9
20260901005801 73 198 0.0 0.0 0.00 0.09 0.10 88 1010.9
20260901005657 73 175 0.0 0.0 0.00 0.09 0.10 88 1010.9
20260901005333 73 178 0.0 0.0 0.00 0.09 0.10 88 1010.8
20260901005227 73 176 0.0 0.0 0.00 0.09 0.10 88 1010.8
20260901005123 73 175 0.0 0.0 0.00 0.09 0.10 88 1010.8
20260901005018 73 179 0.0 0.0 0.00 0.09 0.10 88 1010.9
20260901004915 73 179 0.0 0.0 0.00 0.09 0.10 88 1010.9
20260901004809 73 179 0.0 0.0 0.00 0.09 0.10 88 1011.0
20260901004703 73 168 0.0 0.0 0.00 0.09 0.10 88 1011.0